Location: A�t Lahcen
(32.8243°N, 5.4246°W)
Time: 02:03:39
(UTC+00:00)

Cosmos 1346 Rocket - Pass Details

Date: 27 January 2021
Orbit: 532 x 546 km, 81.2° (Epoch: 26 February)

Event Time Altitude Azimuth Distance (km) Brightness Sun altitude
Rises 05:55:12 0° 358° (N) 2,705 6.2 -17.9°
Reaches altitude 10° 05:57:25 10° 4° (N) 1,811 5.4 -17.4°
Maximum altitude 06:01:18 50° 80° (E) 697 3.7 -16.6°
Drops below altitude 10° 06:05:11 10° 157° (SSE) 1,806 5.9 -15.8°
Sets 06:07:23 0° 162° (SSE) 2,695 6.8 -15.4°
